TimeEST,TemperatureF,Dew PointF,Humidity,Sea Level PressureIn,VisibilityMPH,Wind Direction,Wind SpeedMPH,Gust SpeedMPH,PrecipitationIn,Events,Conditions,WindDirDegrees,DateUTC
12:53 AM,6.1,-2.9,67,30.32,10.0,NNW,11.5,-,N/A,,Clear,330,2014-01-03 05:53:00
1:53 AM,3.9,-6.0,64,30.33,10.0,North,9.2,-,N/A,,Clear,350,2014-01-03 06:53:00
2:53 AM,1.9,-8.0,63,30.36,10.0,NNW,6.9,-,N/A,,Clear,330,2014-01-03 07:53:00
3:53 AM,-2.9,-11.0,68,30.40,10.0,NW,8.1,-,N/A,,Clear,310,2014-01-03 08:53:00
4:53 AM,-4.0,-11.0,72,30.40,10.0,NW,5.8,-,N/A,,Clear,320,2014-01-03 09:53:00
5:53 AM,-5.1,-11.9,72,30.42,10.0,NW,6.9,-,N/A,,Clear,310,2014-01-03 10:53:00
6:53 AM,-7.1,-13.0,75,30.45,10.0,WNW,5.8,-,N/A,,Clear,300,2014-01-03 11:53:00
7:53 AM,-2.0,-9.0,72,30.47,10.0,West,3.5,-,N/A,,Clear,260,2014-01-03 12:53:00
8:53 AM,-2.9,-9.0,75,30.48,10.0,WSW,3.5,-,N/A,,Clear,240,2014-01-03 13:53:00
9:53 AM,-0.0,-7.1,72,30.50,10.0,West,3.5,-,N/A,,Clear,260,2014-01-03 14:53:00
10:53 AM,3.9,-5.1,66,30.52,10.0,SSW,4.6,-,N/A,,Clear,210,2014-01-03 15:53:00
11:53 AM,6.1,-4.0,63,30.49,10.0,WSW,6.9,-,N/A,,Clear,250,2014-01-03 16:53:00
12:53 PM,8.1,-4.0,58,30.47,10.0,SW,5.8,-,N/A,,Clear,220,2014-01-03 17:53:00
1:53 PM,9.0,-4.0,56,30.46,10.0,SW,6.9,-,N/A,,Clear,220,2014-01-03 18:53:00
2:53 PM,10.0,-4.0,53,30.44,10.0,SSW,6.9,-,N/A,,Clear,200,2014-01-03 19:53:00
3:53 PM,10.9,-5.1,49,30.45,10.0,South,8.1,-,N/A,,Clear,190,2014-01-03 20:53:00
4:53 PM,10.0,-5.1,51,30.42,10.0,South,5.8,-,N/A,,Clear,170,2014-01-03 21:53:00
5:53 PM,10.9,-2.0,56,30.41,10.0,South,11.5,-,N/A,,Mostly Cloudy,170,2014-01-03 22:53:00
6:53 PM,12.0,-0.9,56,30.38,10.0,South,12.7,-,N/A,,Overcast,170,2014-01-03 23:53:00
7:53 PM,12.9,-0.0,56,30.35,10.0,South,11.5,-,N/A,,Mostly Cloudy,170,2014-01-04 00:53:00
8:53 PM,10.9,-0.0,61,30.33,10.0,SSE,11.5,-,N/A,,Mostly Cloudy,160,2014-01-04 01:53:00
9:53 PM,12.0,1.9,64,30.30,10.0,South,12.7,-,N/A,,Partly Cloudy,180,2014-01-04 02:53:00
10:53 PM,10.9,1.9,67,30.28,10.0,South,12.7,-,N/A,,Clear,170,2014-01-04 03:53:00
11:53 PM,10.0,1.0,67,30.25,10.0,SSE,13.8,-,N/A,,Clear,160,2014-01-04 04:53:00